Location: Unspecified
(45.3712°N, 0.6436°E)
Time: 03:14:58
(UTC+01:00)

N. Korean satellite - Visible Passes

Search period start: 19 February 2018 00:00
Search period end: 01 March 2018 00:00
Orbit: 459 x 514 km, 97.2° (Epoch: 17 February)

Date Brightness Start Highest point End Pass type
(mag) Time Alt. Az. Time Alt. Az. Time Alt. Az.
19 Feb 8.9 07:07:53 10° NNE 07:11:09 30° E 07:14:26 10° SSE visible
19 Feb 8.5 19:19:31 10° SSW 19:22:40 33° W 19:25:51 10° NNW visible
20 Feb 10.0 06:44:51 10° NE 06:47:16 17° E 06:49:42 10° SE visible
22 Feb 9.8 19:42:37 10° SW 19:45:03 18° W 19:47:31 10° NW visible
23 Feb 9.0 07:06:24 10° NNE 07:09:41 30° E 07:12:58 10° SSE visible
23 Feb 8.5 19:17:59 10° SSW 19:21:09 34° W 19:24:24 10° NNW visible
24 Feb 10.1 06:43:22 10° NE 06:45:47 16° E 06:48:12 10° SE visible
26 Feb 9.7 19:40:58 10° SW 19:43:30 19° W 19:46:04 10° NW visible
27 Feb 9.1 07:04:52 10° NE 07:08:09 29° E 07:11:27 10° SSE visible
27 Feb 8.4 19:16:23 10° SSW 19:19:35 35° W 19:22:53 10° NNW visible
28 Feb 10.2 06:41:52 10° NE 06:44:15 16° E 06:46:38 10° SE visible
